This is the latest recevied weather packets stored in our database for station/object AE5EW. If no packets are shown the sender has not sent any weather packets the latest 10 day(s).
| Time | Temp. | Humidity | Pressure | Rain* | Wind** | Luminosity | Snow |
|---|---|---|---|---|---|---|---|
| 1787868620 | 27.22° C | 84% | 1015.5 hPa | 0 mm | - | - | - |
| 1787868318 | 26.67° C | 84% | 1015.4 hPa | 0 mm | - | - | - |
| 1787868014 | 26.67° C | 85% | 1015.3 hPa | 0 mm | - | - | - |
| 1787867709 | 26.67° C | 85% | 1015.6 hPa | 0 mm | - | - | - |
| 1787867404 | 26.67° C | 84% | 1015.5 hPa | 0 mm | - | - | - |
| 1787867100 | 26.67° C | 83% | 1015.4 hPa | 0 mm | - | - | - |
| 1787866794 | 26.67° C | 83% | 1015.2 hPa | 0 mm | - | - | - |
| 1787866494 | 27.22° C | 83% | 1015.1 hPa | 0 mm | - | - | - |
| 1787866192 | 27.22° C | 85% | 1015.2 hPa | 0 mm | - | - | - |
| 1787865888 | 27.22° C | 83% | 1015.2 hPa | 0 mm | - | - | - |
| 1787865583 | 27.22° C | 82% | 1015.3 hPa | 0 mm | - | - | - |
| 1787865278 | 27.22° C | 84% | 1015.5 hPa | 0 mm | - | - | - |
| 1787864974 | 27.22° C | 85% | 1015.5 hPa | 0 mm | - | - | - |
| 1787864670 | 27.22° C | 85% | 1015.5 hPa | 0 mm | - | - | - |
| 1787864364 | 27.22° C | 85% | 1015.5 hPa | 0 mm | - | - | - |
| 1787864063 | 26.67° C | 86% | 1015.7 hPa | 0 mm | - | - | - |
| 1787863762 | 27.22° C | 83% | 1015.5 hPa | 0 mm | - | - | - |
| 1787863461 | 26.67° C | 84% | 1015.7 hPa | 0 mm | - | - | - |
| 1787863157 | 26.67° C | 85% | 1015.6 hPa | 0 mm | - | - | - |
| 1787862853 | 27.22° C | 84% | 1015.6 hPa | 0 mm | - | - | - |
| 1787862552 | 26.67° C | 86% | 1015.6 hPa | 0 mm | - | - | - |
| 1787862247 | 26.67° C | 85% | 1015.6 hPa | 0 mm | - | - | - |
| 1787861948 | 26.67° C | 86% | 1015.6 hPa | 0 mm | - | - | - |
| 1787861647 | 26.67° C | 85% | 1015.8 hPa | 0 mm | - | - | - |
| 1787861345 | 26.67° C | 85% | 1015.8 hPa | 0 mm | - | - | - |
* Rain latest hour (hover to see other rain measurements)
** Current wind speed in m/s (hover to see current wind gust speed)